| time (UTC) | temp F | wind direction | speed MPH | gust MPH | rain 1hr in | rain 24hr in | rain mn in | humidity % | barometer mb |
| 20260906130051 | 81 | 219 | 1.0 | 2.0 | 0.00 | 0.00 | 0.00 | 93 | 1011.3 |
| 20260906124550 | 80 | 227 | 0.0 | 3.0 | 0.00 | 0.00 | 0.00 | 94 | 1011.1 |
| 20260906123047 | 80 | 251 | 1.0 | 3.0 | 0.00 | 0.00 | 0.00 | 95 | 1010.9 |
| 20260906121547 | 79 | 219 | 0.0 | 2.0 | 0.00 | 0.00 | 0.00 | 96 | 1010.9 |
| 20260906120050 | 78 | 240 | 0.0 | 1.0 | 0.00 | 0.00 | 0.00 | 96 | 1011.1 |
| 20260906114549 | 77 | 240 | 0.0 | 0.0 | 0.00 | 0.00 | 0.00 | 96 | 1011.3 |
| 20260906113045 | 77 | 240 | 0.0 | 0.0 | 0.00 | 0.00 | 0.00 | 96 | 1011.2 |
| 20260906111548 | 77 | 240 | 0.0 | 0.0 | 0.00 | 0.00 | 0.00 | 96 | 1010.9 |
| 20260906110044 | 78 | 240 | 0.0 | 0.0 | 0.00 | 0.00 | 0.00 | 96 | 1010.6 |
| 20260906104543 | 78 | 240 | 0.0 | 0.0 | 0.00 | 0.00 | 0.00 | 96 | 1010.3 |
| 20260906103039 | 78 | 240 | 0.0 | 0.0 | 0.00 | 0.00 | 0.00 | 95 | 1010.0 |
| 20260906101538 | 78 | 240 | 0.0 | 1.0 | 0.00 | 0.00 | 0.00 | 95 | 1010.1 |
| 20260906100039 | 78 | 240 | 0.0 | 0.0 | 0.00 | 0.00 | 0.00 | 95 | 1010.2 |
| 20260906094601 | 78 | 240 | 0.0 | 1.0 | 0.00 | 0.00 | 0.00 | 95 | 1009.9 |
| 20260906093038 | 78 | 240 | 0.0 | 1.0 | 0.00 | 0.00 | 0.00 | 95 | 1009.8 |
| 20260906091541 | 78 | 240 | 0.0 | 2.0 | 0.00 | 0.00 | 0.00 | 95 | 1009.8 |
| 20260906090033 | 79 | 240 | 0.0 | 0.0 | 0.00 | 0.00 | 0.00 | 95 | 1009.8 |
| 20260906084537 | 79 | 240 | 0.0 | 0.0 | 0.00 | 0.00 | 0.00 | 95 | 1009.8 |
| 20260906083035 | 79 | 240 | 0.0 | 0.0 | 0.00 | 0.00 | 0.00 | 94 | 1009.7 |
| 20260906081544 | 79 | 240 | 0.0 | 0.0 | 0.00 | 0.00 | 0.00 | 94 | 1009.7 |
| 20260906080028 | 79 | 240 | 0.0 | 0.0 | 0.00 | 0.00 | 0.00 | 94 | 1009.8 |
| 20260906074531 | 80 | 240 | 0.0 | 1.0 | 0.00 | 0.00 | 0.00 | 94 | 1009.8 |
| 20260906073027 | 80 | 240 | 0.0 | 1.0 | 0.00 | 0.00 | 0.00 | 94 | 1009.9 |
| 20260906071526 | 80 | 239 | 0.0 | 2.0 | 0.00 | 0.00 | 0.00 | 94 | 1009.9 |
| 20260906070025 | 80 | 239 | 0.0 | 1.0 | 0.00 | 0.00 | 0.00 | 93 | 1010.0 |
| 20260906064524 | 80 | 240 | 0.0 | 1.0 | 0.00 | 0.00 | 0.00 | 93 | 1010.0 |
| 20260906063030 | 80 | 239 | 0.0 | 2.0 | 0.00 | 0.00 | 0.00 | 93 | 1010.0 |
| 20260906061532 | 80 | 212 | 0.0 | 2.0 | 0.00 | 0.00 | 0.00 | 93 | 1010.2 |
| 20260906060019 | 80 | 209 | 0.0 | 1.0 | 0.00 | 0.00 | 0.00 | 93 | 1010.3 |
| 20260906054519 | 81 | 209 | 0.0 | 1.0 | 0.00 | 0.00 | 0.00 | 93 | 1010.5 |
| 20260906053019 | 81 | 209 | 0.0 | 2.0 | 0.00 | 0.00 | 0.00 | 93 | 1010.5 |
| 20260906051514 | 81 | 208 | 0.0 | 2.0 | 0.00 | 0.00 | 0.00 | 93 | 1010.6 |
| 20260906050015 | 81 | 212 | 0.0 | 2.0 | 0.00 | 0.00 | 0.00 | 93 | 1010.6 |
| 20260906044512 | 81 | 212 | 0.0 | 1.0 | 0.00 | 0.00 | 0.00 | 94 | 1010.6 |
| 20260906043010 | 81 | 212 | 0.0 | 1.0 | 0.00 | 0.00 | 0.00 | 93 | 1010.5 |
| 20260906041509 | 81 | 212 | 0.0 | 2.0 | 0.00 | 0.00 | 0.00 | 93 | 1010.6 |
| 20260906040007 | 81 | 212 | 0.0 | 1.0 | 0.00 | 0.00 | 0.00 | 93 | 1010.8 |
| 20260906034503 | 81 | 198 | 0.0 | 2.0 | 0.00 | 0.00 | 0.00 | 93 | 1010.9 |
| 20260906033059 | 81 | 204 | 0.0 | 3.0 | 0.00 | 0.00 | 0.00 | 92 | 1011.1 |
| 20260906031601 | 81 | 192 | 0.0 | 1.0 | 0.00 | 0.00 | 0.00 | 92 | 1011.3 |
| 20260906030052 | 81 | 192 | 0.0 | 0.0 | 0.00 | 0.00 | 0.00 | 92 | 1011.3 |
| 20260906024545 | 81 | 192 | 0.0 | 1.0 | 0.00 | 0.00 | 0.00 | 91 | 1011.3 |
| 20260906023048 | 82 | 192 | 0.0 | 0.0 | 0.00 | 0.00 | 0.00 | 91 | 1011.3 |
| 20260906021537 | 82 | 192 | 0.0 | 2.0 | 0.00 | 0.00 | 0.00 | 90 | 1011.3 |
| 20260906020132 | 82 | 192 | 0.0 | 0.0 | 0.00 | 0.00 | 0.00 | 91 | 1011.1 |
| 20260906014533 | 82 | 192 | 0.0 | 0.0 | 0.00 | 0.00 | 0.00 | 89 | 1010.9 |
| 20260906013023 | 82 | 192 | 0.0 | 0.0 | 0.00 | 0.00 | 0.00 | 89 | 1010.7 |
| 20260906011519 | 82 | 192 | 0.0 | 1.0 | 0.00 | 0.00 | 0.00 | 89 | 1010.5 |
| 20260906010014 | 83 | 192 | 0.0 | 1.0 | 0.00 | 0.00 | 0.00 | 88 | 1010.2 |
| 20260906004510 | 83 | 192 | 0.0 | 1.0 | 0.00 | 0.00 | 0.00 | 88 | 1010.1 |
| 20260906003008 | 84 | 192 | 0.0 | 0.0 | 0.00 | 0.00 | 0.00 | 86 | 1009.9 |
| 20260906001502 | 85 | 192 | 0.0 | 0.0 | 0.00 | 0.00 | 0.00 | 85 | 1009.8 |
| 20260906000057 | 85 | 192 | 0.0 | 1.0 | 0.00 | 0.00 | 0.00 | 84 | 1009.6 |
| 20260905234553 | 86 | 193 | 0.0 | 2.0 | 0.00 | 0.01 | 0.00 | 83 | 1009.6 |
| 20260905233052 | 87 | 217 | 0.0 | 1.0 | 0.00 | 0.01 | 0.00 | 83 | 1009.8 |
| 20260905231544 | 87 | 216 | 0.0 | 2.0 | 0.00 | 0.01 | 0.00 | 82 | 1009.6 |
| 20260905230039 | 88 | 210 | 0.0 | 3.0 | 0.00 | 0.01 | 0.00 | 83 | 1009.7 |
| 20260905224535 | 88 | 122 | 0.0 | 2.0 | 0.00 | 0.01 | 0.00 | 82 | 1010.0 |
| 20260905223037 | 89 | 196 | 0.0 | 3.0 | 0.00 | 0.01 | 0.00 | 82 | 1010.1 |
| 20260905221538 | 90 | 214 | 0.0 | 3.0 | 0.00 | 0.01 | 0.00 | 80 | 1010.2 |
| 20260905220022 | 90 | 199 | 0.0 | 1.0 | 0.00 | 0.01 | 0.00 | 78 | 1010.2 |
| 20260905214517 | 91 | 199 | 0.0 | 1.0 | 0.00 | 0.01 | 0.00 | 75 | 1010.3 |
| 20260905213013 | 91 | 199 | 0.0 | 1.0 | 0.00 | 0.01 | 0.00 | 73 | 1010.4 |
| 20260905211524 | 91 | 217 | 1.0 | 2.0 | 0.00 | 0.01 | 0.00 | 72 | 1010.4 |
| 20260905210005 | 91 | 214 | 0.0 | 2.0 | 0.00 | 0.01 | 0.00 | 74 | 1010.4 |
| 20260905204604 | 92 | 251 | 1.0 | 3.0 | 0.00 | 0.01 | 0.00 | 71 | 1010.3 |
| 20260905203058 | 92 | 257 | 1.0 | 4.0 | 0.00 | 0.01 | 0.00 | 72 | 1010.2 |
| 20260905201600 | 92 | 215 | 1.0 | 6.0 | 0.00 | 0.01 | 0.00 | 72 | 1010.1 |
| 20260905200059 | 92 | 252 | 1.0 | 3.0 | 0.00 | 0.01 | 0.00 | 72 | 1010.1 |
| 20260905194543 | 92 | 254 | 0.0 | 4.0 | 0.00 | 0.01 | 0.00 | 73 | 1010.3 |
| 20260905193039 | 91 | 247 | 0.0 | 4.0 | 0.00 | 0.01 | 0.00 | 73 | 1010.5 |
| 20260905191540 | 92 | 280 | 1.0 | 5.0 | 0.00 | 0.01 | 0.00 | 72 | 1010.9 |
| 20260905190030 | 91 | 251 | 1.0 | 3.0 | 0.00 | 0.01 | 0.00 | 72 | 1010.7 |
| 20260905184532 | 91 | 223 | 1.0 | 3.0 | 0.00 | 0.01 | 0.00 | 72 | 1011.0 |
| 20260905183022 | 90 | 250 | 1.0 | 3.0 | 0.00 | 0.01 | 0.00 | 73 | 1011.2 |
| 20260905181519 | 90 | 253 | 1.0 | 5.0 | 0.00 | 0.01 | 0.00 | 74 | 1011.4 |
| 20260905180015 | 89 | 42 | 1.0 | 3.0 | 0.00 | 0.01 | 0.00 | 77 | 1011.5 |
| 20260905174512 | 89 | 260 | 1.0 | 4.0 | 0.00 | 0.01 | 0.00 | 77 | 1011.7 |
| 20260905173010 | 89 | 286 | 1.0 | 3.0 | 0.00 | 0.01 | 0.00 | 81 | 1012.0 |
| 20260905171521 | 88 | 249 | 2.0 | 6.0 | 0.00 | 0.01 | 0.00 | 81 | 1012.0 |
| 20260905170004 | 88 | 275 | 1.0 | 4.0 | 0.00 | 0.01 | 0.00 | 81 | 1012.6 |
| 20260905164501 | 86 | 58 | 0.0 | 3.0 | 0.00 | 0.05 | 0.00 | 83 | 1012.8 |
| 20260905163101 | 86 | 71 | 1.0 | 3.0 | 0.00 | 0.05 | 0.00 | 86 | 1013.1 |
| 20260905161554 | 85 | 291 | 1.0 | 3.0 | 0.00 | 0.05 | 0.00 | 86 | 1013.4 |
| 20260905160053 | 84 | 220 | 2.0 | 6.0 | 0.00 | 0.05 | 0.00 | 88 | 1013.7 |
| 20260905154553 | 83 | 253 | 1.0 | 3.0 | 0.00 | 0.05 | 0.00 | 90 | 1013.9 |
| 20260905153044 | 83 | 245 | 0.0 | 3.0 | 0.00 | 0.05 | 0.00 | 92 | 1014.0 |
| 20260905151543 | 82 | 223 | 1.0 | 3.0 | 0.00 | 0.05 | 0.00 | 92 | 1014.0 |
| 20260905150040 | 82 | 241 | 0.0 | 2.0 | 0.00 | 0.05 | 0.00 | 93 | 1014.0 |
| 20260905144549 | 82 | 257 | 0.0 | 3.0 | 0.00 | 0.39 | 0.00 | 93 | 1013.9 |
| 20260905143036 | 81 | 213 | 1.0 | 3.0 | 0.00 | 0.39 | 0.00 | 95 | 1013.9 |
| 20260905141534 | 81 | 243 | 0.0 | 2.0 | 0.00 | 0.39 | 0.00 | 97 | 1013.9 |
| 20260905140035 | 80 | 229 | 0.0 | 3.0 | 0.00 | 0.39 | 0.00 | 98 | 1013.9 |
| 20260905134528 | 79 | 220 | 1.0 | 3.0 | 0.00 | 0.39 | 0.00 | 98 | 1013.8 |
| 20260905133028 | 79 | 206 | 0.0 | 2.0 | 0.00 | 0.39 | 0.00 | 99 | 1013.8 |
| 20260905131525 | 78 | 204 | 0.0 | 3.0 | 0.00 | 0.39 | 0.00 | 99 | 1013.7 |